LIMJLFMN

Guest
Details From LIMJ - Genova Sestri
To LFMN - Nice/Cote d'Azur
Flight Number -
Tags decoded
Created
Modified
Stats Distance 91 nm / 169 km
Max Altitude 0 ft / 0 m
Waypoints 3
Social Downloads 1
Likes 0
Share VATSIM

Download

Looking for another format? Having issues loading an existing format? Contact us
Advertisement - Login to hide

Notes

Requested: LIMJ IXITO LFMN

Route

LIMJ IXITO LFMN

ID Type Via Altitude Latitude Longitude Leg Dist Tot Dist Heading (true) Name
O LIMJ APT - 0 ft / 0 m 44.41196˚ 8.84187˚ - 0 nm - Genova Sestri
IXITO FIX - 0 ft / 0 m 44.13472˚ 8.80361˚ 16 nm 16 nm 186° / 186° -
O LFMN APT - 0 ft / 0 m 43.65798˚ 7.21536˚ 74 nm 91 nm 248° / 247° Nice/Cote d'Azur

Altitude Profile

Advertisement - Login to hide

LIMJ

Details ICAO LIMJ (GOA)
Name Genova Sestri
Region Italy
Timezone Unknown (UTC+0.0)
Stats Elevation 13 ft / 4 m (AMSL)
Location 44.411957° 8.841866°
Runways 1
Magnetic Variation 2.400° E

METAR

LIMJ 241120Z 05006KT 020V090 CAVOK 12/04 Q1031

Decode

TAF

TAF LIMJ 240500Z 2406/2506 02012KT 9999 SCT025 BECMG 2408/2410 VRB05KT BECMG 2500/2502 17010KT BKN012 BKN030 TEMPO 2502/2506 RA

Decode

Departure Runways

ID Width Length Bearing (true) Bearing (mag) Surface Threshold Offset Overrun Length
10 148 ft / 45 m 9,574 ft / 2,918 m 105.39° 102.99° Asphalt 0 ft / 0 m 0 ft / 0 m
28 148 ft / 45 m 9,574 ft / 2,918 m 285.41° 283.01° Asphalt 538 ft / 164 m 0 ft / 0 m

LFMN

Details ICAO LFMN (NCE)
Name Nice/Cote d'Azur
Region France
Timezone Unknown (UTC+0.0)
Stats Elevation 12 ft / 4 m (AMSL)
Location 43.657981° 7.215362°
Runways 2
Magnetic Variation 2.029° E

METAR

LFMN 241130Z 13005KT 100V160 9999 FEW060 14/06 Q1030 NOSIG

Decode

TAF

TAF TAF LFMN 240800Z 2409/2515 33005KT CAVOK BECMG 2412/2414 10008KT BECMG 2418/2420 BKN010 BECMG 2419/2421 34010KT TEMPO 2508/2514 8000 RA BECMG 2514/2515 08008KT BKN010 BKN200

Decode

Destination Runways

ID Width Length Bearing (true) Bearing (mag) Surface Threshold Offset Overrun Length
04L 148 ft / 45 m 8,427 ft / 2,569 m 44.85° 42.82° Asphalt 0 ft / 0 m 131 ft / 40 m
04R 148 ft / 45 m 9,720 ft / 2,963 m 44.60° 42.57° Asphalt 0 ft / 0 m 427 ft / 130 m
22L 148 ft / 45 m 9,720 ft / 2,963 m 224.62° 222.59° Asphalt 0 ft / 0 m 525 ft / 160 m
22R 148 ft / 45 m 8,427 ft / 2,569 m 224.87° 222.84° Asphalt 0 ft / 0 m 492 ft / 150 m

Approach Navaids

Runway Type Ident Frequency Range Bearing (true) Bearing (mag) Slope Elevation
04L Localiser NI 109.95 MHz 27 nm / 50 km 44.90° 42.87° - 12 ft / 4 m (AMSL)
04L Glidescope NI 109.95 MHz 27 nm / 50 km 44.90° 42.87° 3.00° 12 ft / 4 m (AMSL)
04L DME NI 109.95 MHz 27 nm / 50 km - - - 12 ft / 4 m (AMSL)
04R Localiser NA 110.70 MHz 27 nm / 50 km 42.00° 39.97° - 12 ft / 4 m (AMSL)
04R Glidescope NA 110.70 MHz 27 nm / 50 km 42.00° 39.97° 3.00° 12 ft / 4 m (AMSL)
04R DME NA 110.70 MHz 27 nm / 50 km - - - 12 ft / 4 m (AMSL)

Popular Alternatives